Flag for Marshall Islands Weather past 2 weeks in Majuro, Marshall Islands

83 °F

More clouds than sun.

Feels Like: 93 °F
Forecast: 82 / 86 °F
Wind: 14 mph from Northeast

Location: Majuro Atoll

Current Time: Nov 28, 2015 at 9:46:43 AM

Latest Report: Nov 28, 2015 at 8:52 AM

Visibility: 15 mi

Pressure: 29.78 "Hg

Humidity: 82%

Dew point: 77 °F

Location of MajuroLocation

Historic Weather in Majuro — Graph


Majuro temperature yesterday

Maximum temperature yesterday: 89 °F (at 11:56 AM)
Minimum temperature yesterday: 83 °F (at 4:52 AM)
Average temperature yesterday: 85 °F

Past Weeks' High & Low Weather Summary

High89 °F (Nov 27, 11:56 AM)94% (Nov 15, 2:51 AM)29.85 "Hg (Nov 15, 2:51 AM)
Low78 °F (Nov 15, 4:56 PM)72% (Nov 26, 12:53 PM)29.65 "Hg (Nov 20, 2:52 PM)
Average83 °F83%29.75 "Hg
* Reported Nov 13 7:50 AM — Nov 28 7:50 AM, Majuro, Weather by CustomWeather, © 2015

Note: Actual official high and low records may vary slightly from our data, if they occured in-between our weather recording intervals... More about our weather records


Majuro weather history for previous 24 hours

Time TempWeatherWind HumidityBarometerVisibility
7:50 AM
Sat, Nov 28
83 °FMore clouds than sun.12 mph81%29.78 "Hg15 mi
6:54 AM83 °FMostly cloudy.12 mph84%29.75 "Hg15 mi
5:55 AM82 °FMostly cloudy.12 mph82%29.74 "Hg15 mi
4:57 AM83 °FMostly cloudy.12 mph83%29.72 "Hg15 mi
2:54 AM82 °FOvercast.15 mph83%29.74 "Hg15 mi
1:54 AM82 °FOvercast.12 mph84%29.75 "Hg15 mi
10:50 PM
Fri, Nov 27
84 °FMostly cloudy.13 mph83%29.78 "Hg15 mi
9:53 PM84 °FPartly cloudy.9 mph83%29.78 "Hg15 mi
8:53 PM84 °FPassing clouds.10 mph81%29.78 "Hg15 mi
7:53 PM83 °FPartly cloudy.12 mph83%29.76 "Hg15 mi
6:54 PM83 °FBroken clouds.16 mph84%29.73 "Hg15 mi
5:50 PM84 °FMore clouds than sun.16 mph81%29.72 "Hg15 mi
4:54 PM85 °FMore clouds than sun.10 mph80%29.70 "Hg15 mi
3:54 PM87 °FBroken clouds.No wind78%29.68 "Hg15 mi
2:51 PM88 °FMore clouds than sun.8 mph75%29.68 "Hg15 mi
12:50 PM89 °FMore clouds than sun.10 mph73%29.73 "Hg15 mi
11:56 AM89 °FMore clouds than sun.12 mph73%29.75 "Hg15 mi
10:50 AM88 °FMore clouds than sun.12 mph72%29.77 "Hg15 mi
9:50 AM87 °FMore clouds than sun.9 mph74%29.78 "Hg15 mi
Weather by CustomWeather, © 2015

See weather overviewHow to use our weather pages